Satellite: ORSTED
Catalog number: 25635
Epoch time:      103035.05420561
Element set:     823 
Inclination:       96.4487 deg
RA of node:        24.7613 deg
Eccentricity:    0.0146335
Arg of perigee:    15.6556 deg
Mean anomaly:     344.9088 deg
Mean motion:   14.44806911 rev/day
Decay rate:    8.7600E-006 rev/day^2
Epoch rev:           20784
Checksum:              308

Satellite: SUNSAT
Catalog number: 25636
Epoch time:      103034.94702544
Element set:     681 
Inclination:       96.4515 deg
RA of node:        23.3672 deg
Eccentricity:    0.0150183
Arg of perigee:    22.2588 deg
Mean anomaly:     338.5035 deg
Mean motion:   14.42937240 rev/day
Decay rate:    4.4299E-006 rev/day^2
Epoch rev:           20770
Checksum:              300

Satellite: UOSAT 12
Catalog number: 25693
Epoch time:      103035.46088469
Element set:     676 
Inclination:       64.5594 deg
RA of node:        53.9688 deg
Eccentricity:    0.0018838
Arg of perigee:   316.6302 deg
Mean anomaly:      43.3317 deg
Mean motion:   14.76369668 rev/day
Decay rate:    3.0100E-006 rev/day^2
Epoch rev:           20417
Checksum:              333

Satellite: FENGYUN 1C
Catalog number: 25730
Epoch time:      103034.98207866
Element set:     764 
Inclination:       98.6348 deg
RA of node:        59.9296 deg
Eccentricity:    0.0015142
Arg of perigee:    46.6069 deg
Mean anomaly:     313.6362 deg
Mean motion:   14.11731578 rev/day
Decay rate:   -2.6999E-007 rev/day^2
Epoch rev:           19257
Checksum:              350

Satellite: ASTRA 1H
Catalog number: 25785
Epoch time:      103023.00000000
Element set:     369 
Inclination:        0.0122 deg
RA of node:       319.8851 deg
Eccentricity:    0.0002995
Arg of perigee:    65.1991 deg
Mean anomaly:     116.0174 deg
Mean motion:    1.00273184 rev/day
Decay rate:    1.2299E-006 rev/day^2
Epoch rev:            1323
Checksum:              243

Satellite: TERRA
Catalog number: 25994
Epoch time:      103035.23561324
Element set:     665 
Inclination:       98.2017 deg
RA of node:       111.6764 deg
Eccentricity:    0.0001037
Arg of perigee:    60.7346 deg
Mean anomaly:     299.3956 deg
Mean motion:   14.57113560 rev/day
Decay rate:    4.8400E-006 rev/day^2
Epoch rev:           16658
Checksum:              306

Satellite: JAWSAT
Catalog number: 26061
Epoch time:      103034.54812949
Element set:     756 
Inclination:      100.2103 deg
RA of node:        88.8287 deg
Eccentricity:    0.0034784
Arg of perigee:   322.5992 deg
Mean anomaly:      37.2769 deg
Mean motion:   14.37805483 rev/day
Decay rate:    4.5400E-006 rev/day^2
Epoch rev:           15837
Checksum:              319

Satellite: OPAL
Catalog number: 26063
Epoch time:      103034.70894390
Element set:     713 
Inclination:      100.2151 deg
RA of node:        86.5921 deg
Eccentricity:    0.0037155
Arg of perigee:   329.1654 deg
Mean anomaly:      30.7343 deg
Mean motion:   14.35474335 rev/day
Decay rate:    1.2199E-006 rev/day^2
Epoch rev:           15825
Checksum:              286

Satellite: ASUSAT
Catalog number: 26065
Epoch time:      103035.50249720
Element set:     725 
Inclination:      100.2118 deg
RA of node:        87.6751 deg
Eccentricity:    0.0037045
Arg of perigee:   328.0685 deg
Mean anomaly:      31.8250 deg
Mean motion:   14.35502040 rev/day
Decay rate:    1.7099E-006 rev/day^2
Epoch rev:           15836
Checksum:              278

Satellite: GOES 11
Catalog number: 26352
Epoch time:      103035.38000563
Element set:     6 
Inclination:        0.1049 deg
RA of node:       104.4860 deg
Eccentricity:    0.0003750
Arg of perigee:   217.6297 deg
Mean anomaly:     195.7412 deg
Mean motion:    1.00263514 rev/day
Decay rate:   -4.1000E-007 rev/day^2
Epoch rev:            1009
Checksum:              231

Satellite: EUTELSAT W4
Catalog number: 26369
Epoch time:      103028.81856696
Element set:     348 
Inclination:        0.0297 deg
RA of node:        41.0424 deg
Eccentricity:    0.0009627
Arg of perigee:   313.4883 deg
Mean anomaly:     103.8214 deg
Mean motion:    1.00274845 rev/day
Decay rate:    1.5099E-006 rev/day^2
Epoch rev:             984
Checksum:              304

Satellite: FENGYUN 2B
Catalog number: 26382
Epoch time:      103034.59253036
Element set:     783 
Inclination:        0.5983 deg
RA of node:       286.7957 deg
Eccentricity:    0.0001645
Arg of perigee:   202.4043 deg
Mean anomaly:     321.4079 deg
Mean motion:    1.00277344 rev/day
Decay rate:   -3.3500E-006 rev/day^2
Epoch rev:             956
Checksum:              285

Satellite: EUTELSAT W1
Catalog number: 26487
Epoch time:      103032.84759476
Element set:     350 
Inclination:        0.0132 deg
RA of node:       253.0304 deg
Eccentricity:    0.0004193
Arg of perigee:   328.4501 deg
Mean anomaly:     225.2537 deg
Mean motion:    1.00272552 rev/day
Decay rate:    5.8000E-007 rev/day^2
Epoch rev:             885
Checksum:              364

Satellite: ASTRA 2B
Catalog number: 26494
Epoch time:      103023.00000000
Element set:     252 
Inclination:        0.0178 deg
RA of node:       354.5658 deg
Eccentricity:    0.0005000
Arg of perigee:   302.8402 deg
Mean anomaly:     212.7100 deg
Mean motion:    1.00276704 rev/day
Decay rate:    1.5399E-006 rev/day^2
Epoch rev:             865
Checksum:              221

Satellite: NOAA 16
Catalog number: 26536
Epoch time:      103034.55832330
Element set:     193 
Inclination:       98.9002 deg
RA of node:       342.9540 deg
Eccentricity:    0.0010459
Arg of perigee:   353.0099 deg
Mean anomaly:       7.0979 deg
Mean motion:   14.11892210 rev/day
Decay rate:   -4.7999E-007 rev/day^2
Epoch rev:           12203
Checksum:              307

Satellite: SAUDISAT 1A
Catalog number: 26545
Epoch time:      103035.21064640
Element set:     407 
Inclination:       64.5588 deg
RA of node:        76.0528 deg
Eccentricity:    0.0053024
Arg of perigee:   241.1905 deg
Mean anomaly:     118.3857 deg
Mean motion:   14.78941166 rev/day
Decay rate:    1.3140E-005 rev/day^2
Epoch rev:           12709
Checksum:              290

Satellite: UNISAT
Catalog number: 26547
Epoch time:      103035.20436359
Element set:     426 
Inclination:       64.5575 deg
RA of node:        78.3617 deg
Eccentricity:    0.0060238
Arg of perigee:   243.4520 deg
Mean anomaly:     116.0378 deg
Mean motion:   14.79680614 rev/day
Decay rate:    2.0710E-005 rev/day^2
Epoch rev:           12706
Checksum:              391

Satellite: TIUNGSAT 1
Catalog number: 26548
Epoch time:      103034.58015341
Element set:     410 
Inclination:       64.5575 deg
RA of node:        71.0459 deg
Eccentricity:    0.0046340
Arg of perigee:   240.2881 deg
Mean anomaly:     119.3597 deg
Mean motion:   14.81215836 rev/day
Decay rate:    1.6469E-005 rev/day^2
Epoch rev:           12714
Checksum:              403

Satellite: SAUDISAT 1B
Catalog number: 26549
Epoch time:      103035.23641423
Element set:     683 
Inclination:       64.5544 deg
RA of node:        80.0136 deg
Eccentricity:    0.0057449
Arg of perigee:   241.3698 deg
Mean anomaly:     118.1618 deg
Mean motion:   14.77879558 rev/day
Decay rate:    1.0759E-005 rev/day^2
Epoch rev:           12702
Checksum:              420

Satellite: AMSAT OSCAR 40
Catalog number: 26609
Epoch time:      103034.31137944
Element set:     309 
Inclination:        8.0492 deg
RA of node:        66.9657 deg
Eccentricity:    0.7939320
Arg of perigee:   139.8206 deg
Mean anomaly:     319.3106 deg
Mean motion:    1.25596473 rev/day
Decay rate:   -1.7900E-006 rev/day^2
Epoch rev:            1039
Checksum:              312

Satellite: GOES 12
Catalog number: 26871
Epoch time:      103034.51795689
Element set:     803 
Inclination:        0.3647 deg
RA of node:       276.7255 deg
Eccentricity:    0.0003242
Arg of perigee:     0.5431 deg
Mean anomaly:     303.0391 deg
Mean motion:    1.00363255 rev/day
Decay rate:   -1.4500E-006 rev/day^2
Epoch rev:             568
Checksum:              265

Satellite: PCSAT
Catalog number: 26931
Epoch time:      103035.52833019
Element set:     393 
Inclination:       67.0483 deg
RA of node:       291.7610 deg
Eccentricity:    0.0005080
Arg of perigee:   262.8363 deg
Mean anomaly:      97.2167 deg
Mean motion:   14.29107182 rev/day
Decay rate:    1.5699E-006 rev/day^2
Epoch rev:            7034
Checksum:              301

Satellite: SAPPHIRE
Catalog number: 26932
Epoch time:      103035.57811487
Element set:     388 
Inclination:       67.0563 deg
RA of node:       291.3413 deg
Eccentricity:    0.0005471
Arg of perigee:   239.6795 deg
Mean anomaly:     120.3766 deg
Mean motion:   14.29288562 rev/day
Decay rate:    8.9000E-007 rev/day^2
Epoch rev:            7037
Checksum:              323

Satellite: ENVISAT
Catalog number: 27386
Epoch time:      103035.43330316
Element set:     908 
Inclination:       98.5460 deg
RA of node:       104.1870 deg
Eccentricity:    0.0000925
Arg of perigee:    96.6990 deg
Mean anomaly:     263.4300 deg
Mean motion:   14.32252171 rev/day
Decay rate:    1.8099E-006 rev/day^2
Epoch rev:            4872
Checksum:              295

Satellite: IDEFIX/ARIANE 
Catalog number: 27422
Epoch time:      103034.95788355
Element set:     228 
Inclination:       98.6966 deg
RA of node:       114.2258 deg
Eccentricity:    0.0012584
Arg of perigee:   188.6079 deg
Mean anomaly:     171.4887 deg
Mean motion:   14.27960939 rev/day
Decay rate:    1.9799E-006 rev/day^2
Epoch rev:            3937
Checksum:              378

